Weather History for Middletown, OH

Change the Weather History Date:

Monday, December 10, 2012

  Actual Average (KDAY) Record (KDAY)
Temperature  
Mean Temperature 44 °F 33 °F  
Max Temperature 55 °F 40 °F 67 °F (1971)
Min Temperature 32 °F 26 °F -9 °F (1958)
Degree Days  
Heating Degree Days 22 32  
Month to date heating degree days 307  
Since 1 July heating degree days 1418  
Cooling Degree Days 0 0  
Month to date cooling degree days 0  
Year to date cooling degree days 891  
Moisture  
Dew Point 39 °F    
Average Humidity 95    
Maximum Humidity 100    
Minimum Humidity 86    
Precipitation  
Precipitation 0.00 in 0.10 in 0.69 in (1999)
Month to date precipitation 1.04  
Year to date precipitation 38.97  
Snow  
Snow 0.00 in 0.10 in 4.00 in (1904)
Month to date snowfall 1.0  
Since 1 July snowfall 2.0  
Snow Depth -    
Sea Level Pressure  
Sea Level Pressure 29.78 in    
Wind  
Wind Speed 8 mph (WNW)    
Max Wind Speed 13 mph    
Max Gust Speed 16 mph    
Visibility 9 miles    
Events Snow    
T = Trace of Precipitation, MM = Missing Value Source: NWS Daily Summary

Daily Weather History Graph

Daily Weather History Graph

Search for Another Location

Airport:

Trip Planner

Search our weather history database for the weather conditions in past years. The results will help you decide how hot, cold, wet, or windy it might be!

Date:

Astronomy

Dec. 10, 2012 Rise Set
Actual Time 7:47 AM EST 5:13 PM EST
Civil Twilight 7:17 AM EST 5:43 PM EST
Nautical Twilight 6:43 AM EST 6:17 PM EST
Astronomical Twilight 6:10 AM EST 6:50 PM EST
Moon 4:30 AM EST (12/10) 3:01 PM EST (12/10)
Length of Visible Light 10h 26m
Length of Day
9h 26m
Waning Crescent, 10% of the Moon is Illuminated
Dec 10
Waning Crescent
Dec 13
New
Dec 20
First Quarter
Dec 28
Full
Jan 4
Last Quarter

Hourly Weather History & Observations

Time (EST) Temp. Windchill Dew Point Humidity Pressure Visibility Wind Dir Wind Speed Gust Speed Precip Events Conditions
12:15 AM 55.4 °F - 55.4 °F 100% 29.70 in 10.0 mi South 9.2 mph - N/A   Light Drizzle
12:35 AM 55.4 °F - 55.4 °F 100% 29.69 in 10.0 mi SW 5.8 mph - N/A   Overcast
12:55 AM 55.4 °F - 55.4 °F 100% 29.69 in 10.0 mi SSW 5.8 mph - N/A   Overcast
1:15 AM 55.4 °F - 55.4 °F 100% 29.69 in 10.0 mi SW 6.9 mph - N/A   Overcast
1:35 AM 55.4 °F - 55.4 °F 100% 29.70 in 5.0 mi SW 9.2 mph - N/A   Overcast
1:55 AM 55.4 °F - 55.4 °F 100% 29.70 in 2.5 mi SW 9.2 mph - N/A   Drizzle
2:15 AM 53.4 °F - 53.4 °F 100% 29.71 in 7.0 mi WNW 10.4 mph - N/A   Overcast
2:35 AM 52.7 °F - 52.7 °F 100% 29.70 in 3.0 mi NW 10.4 mph - N/A   Overcast
2:55 AM 52.7 °F - 52.7 °F 100% 29.70 in 4.0 mi NW 11.5 mph - N/A   Overcast
3:15 AM 52.7 °F - 52.7 °F 100% 29.72 in 3.0 mi West 9.2 mph - N/A   Overcast
3:55 AM 50.2 °F - 50.2 °F 100% 29.71 in 7.0 mi WNW 5.8 mph - N/A   Overcast
4:15 AM 49.1 °F - 49.1 °F 100% 29.71 in 7.0 mi WNW 6.9 mph - N/A   Overcast
4:35 AM 47.7 °F - 47.7 °F 100% 29.71 in 7.0 mi WNW 5.8 mph - N/A   Overcast
4:55 AM 47.7 °F - 47.7 °F 100% 29.71 in 7.0 mi WNW 6.9 mph - N/A   Overcast
5:15 AM 47.7 °F - 47.7 °F 100% 29.71 in 7.0 mi WNW 6.9 mph - N/A   Overcast
5:35 AM 47.7 °F - 47.7 °F 100% 29.71 in 7.0 mi WNW 5.8 mph - N/A   Overcast
5:55 AM 47.7 °F - 47.5 °F 99% 29.72 in 10.0 mi Calm Calm - N/A   Overcast
6:15 AM 47.7 °F - 47.7 °F 100% 29.72 in 7.0 mi NW 6.9 mph - N/A   Overcast
6:35 AM 45.1 °F 42.0 °F 45.0 °F 99% 29.72 in 10.0 mi NW 5.8 mph - N/A   Overcast
6:55 AM 45.1 °F 42.0 °F 44.8 °F 99% 29.73 in 10.0 mi WNW 5.8 mph - N/A   Overcast
7:15 AM 42.8 °F 37.5 °F 42.3 °F 98% 29.72 in 10.0 mi NW 9.2 mph - N/A   Overcast
7:35 AM 41.4 °F 37.6 °F 41.0 °F 99% 29.73 in 10.0 mi WNW 5.8 mph - N/A   Overcast
8:15 AM 40.6 °F 35.4 °F 40.5 °F 99% 29.75 in 10.0 mi WNW 8.1 mph - N/A   Overcast
8:35 AM 40.5 °F 37.3 °F 39.7 °F 97% 29.74 in 10.0 mi NW 4.6 mph - N/A   Overcast
8:55 AM 40.1 °F 34.7 °F 38.8 °F 95% 29.75 in 10.0 mi NW 8.1 mph - N/A   Overcast
9:15 AM 40.1 °F 36.9 °F 38.3 °F 93% 29.75 in 10.0 mi NW 4.6 mph - N/A   Overcast
9:35 AM 40.1 °F 36.9 °F 37.9 °F 92% 29.75 in 10.0 mi NW 4.6 mph - N/A   Overcast
9:55 AM 40.1 °F 34.7 °F 37.2 °F 89% 29.75 in 10.0 mi WNW 8.1 mph - N/A   Overcast
10:15 AM 40.1 °F 38.0 °F 36.7 °F 88% 29.74 in 10.0 mi NW 3.5 mph - N/A   Mostly Cloudy
10:35 AM 40.1 °F 36.1 °F 36.5 °F 87% 29.75 in 10.0 mi WNW 5.8 mph - N/A   Mostly Cloudy
10:55 AM 40.1 °F 35.3 °F 36.5 °F 87% 29.74 in 10.0 mi WNW 6.9 mph - N/A   Scattered Clouds
11:15 AM 40.1 °F 34.1 °F 36.5 °F 87% 29.75 in 10.0 mi WNW 9.2 mph - N/A   Mostly Cloudy
11:35 AM 40.1 °F 34.7 °F 36.5 °F 87% 29.75 in 10.0 mi WNW 8.1 mph - N/A   Overcast
11:55 AM 40.1 °F 35.3 °F 36.1 °F 86% 29.77 in 10.0 mi West 6.9 mph - N/A   Overcast
12:15 PM 40.1 °F 34.1 °F 36.3 °F 86% 29.75 in 10.0 mi WNW 9.2 mph - N/A   Overcast
12:35 PM 38.8 °F 31.2 °F 35.6 °F 88% 29.76 in 10.0 mi WNW 12.7 mph - N/A   Overcast
12:55 PM 38.3 °F 30.5 °F 35.4 °F 89% 29.75 in 10.0 mi NW 12.7 mph - N/A   Overcast
1:15 PM 37.6 °F 30.5 °F 34.7 °F 89% 29.74 in 10.0 mi WNW 10.4 mph - N/A   Overcast
1:35 PM 37.6 °F 29.6 °F 35.2 °F 91% 29.75 in 10.0 mi NW 12.7 mph - N/A   Overcast
1:55 PM 36.1 °F 28.7 °F 33.6 °F 91% 29.76 in 10.0 mi NW 10.4 mph - N/A   Overcast
2:15 PM 35.1 °F 28.6 °F 32.7 °F 91% 29.76 in 10.0 mi NW 8.1 mph - N/A   Overcast
2:35 PM 35.1 °F 27.4 °F 32.5 °F 91% 29.77 in 10.0 mi NW 10.4 mph - N/A   Overcast
2:55 PM 35.1 °F 27.4 °F 32.5 °F 91% 29.77 in 10.0 mi West 10.4 mph 16.1 mph N/A   Overcast
3:15 PM 35.1 °F 28.6 °F 32.0 °F 89% 29.79 in 10.0 mi West 8.1 mph - N/A   Overcast
3:35 PM 35.1 °F 27.9 °F 32.5 °F 91% 29.79 in 10.0 mi WNW 9.2 mph - N/A   Overcast
3:55 PM 34.0 °F 26.6 °F 32.0 °F 92% 29.78 in 10.0 mi WNW 9.2 mph - N/A   Overcast
4:15 PM 32.9 °F 28.5 °F 30.9 °F 92% 29.80 in 10.0 mi NW 4.6 mph - N/A   Overcast
4:35 PM 32.9 °F 25.9 °F 31.3 °F 94% 29.81 in 10.0 mi WNW 8.1 mph - N/A   Overcast
4:55 PM 32.5 °F 28.1 °F 30.6 °F 92% 29.81 in 10.0 mi WNW 4.6 mph - N/A   Overcast
5:15 PM 32.5 °F 24.8 °F 30.2 °F 91% 29.81 in 10.0 mi WNW 9.2 mph - N/A   Overcast
5:35 PM 32.5 °F 28.1 °F 31.1 °F 94% 29.81 in 3.0 mi West 4.6 mph - N/A Snow Light Snow
5:55 PM 32.5 °F 28.1 °F 31.8 °F 97% 29.82 in 10.0 mi West 4.6 mph - N/A   Overcast
6:15 PM 32.5 °F 26.2 °F 31.5 °F 96% 29.83 in 10.0 mi WNW 6.9 mph - N/A   Overcast
6:55 PM 32.5 °F 25.5 °F 30.9 °F 94% 29.85 in 10.0 mi West 8.1 mph - N/A   Overcast
7:15 PM 32.5 °F 27.1 °F 31.1 °F 94% 29.85 in 10.0 mi WNW 5.8 mph - N/A   Overcast
7:35 PM 32.5 °F 27.1 °F 30.7 °F 93% 29.87 in 10.0 mi WNW 5.8 mph - N/A   Overcast
7:55 PM 32.5 °F 25.5 °F 30.6 °F 92% 29.87 in 10.0 mi WNW 8.1 mph - N/A   Overcast
8:15 PM 32.5 °F 24.8 °F 30.2 °F 91% 29.89 in 10.0 mi WNW 9.2 mph - N/A   Overcast
8:35 PM 32.5 °F 27.1 °F 30.6 °F 92% 29.89 in 10.0 mi West 5.8 mph - N/A   Overcast
8:55 PM 32.5 °F 26.2 °F 30.9 °F 94% 29.90 in 10.0 mi West 6.9 mph - N/A   Overcast
9:15 PM 32.5 °F 24.8 °F 31.1 °F 94% 29.90 in 10.0 mi West 9.2 mph - N/A   Overcast
9:55 PM 32.5 °F 26.2 °F 31.1 °F 94% 29.92 in 7.0 mi WNW 6.9 mph 10.4 mph N/A   Overcast
10:15 PM 32.5 °F 24.8 °F 31.1 °F 94% 29.93 in 10.0 mi WNW 9.2 mph - N/A   Overcast
10:35 PM 32.5 °F 26.2 °F 31.6 °F 96% 29.93 in 7.0 mi West 6.9 mph - N/A   Overcast
10:55 PM 32.5 °F 26.2 °F 31.6 °F 96% 29.94 in 10.0 mi West 6.9 mph - N/A   Overcast
11:15 PM 32.5 °F 24.8 °F 31.6 °F 96% 29.94 in 7.0 mi West 9.2 mph - N/A   Overcast
11:35 PM 32.5 °F 25.5 °F 32.0 °F 98% 29.95 in 5.0 mi West 8.1 mph - N/A   Overcast
11:55 PM 32.5 °F 26.2 °F 32.0 °F 98% 29.95 in 7.0 mi West 6.9 mph - N/A   Overcast